This is the latest recevied weather packets stored in our database for station/object SV9TNF-1. If no packets are shown the sender has not sent any weather packets the latest 10 day(s).
| Time | Temp. | Humidity | Pressure | Rain* | Wind** | Luminosity | Snow |
|---|---|---|---|---|---|---|---|
| 1777846207 | 11.67° C | 70% | 1006.8 hPa | 0 mm | 0.89 m/s, 153° | - | - |
| 1777845906 | 11.67° C | 72% | 1006.8 hPa | 0 mm | 3.13 m/s, 157° | - | - |
| 1777845607 | 11.67° C | 68% | 1006.4 hPa | 0 mm | 7.6 m/s, 133° | - | - |
| 1777845306 | 11.67° C | 72% | 1006.4 hPa | 0 mm | 7.15 m/s, 338° | - | - |
| 1777845006 | 11.11° C | 77% | 1006.4 hPa | 0 mm | 5.81 m/s, 56° | - | - |
| 1777844706 | 10.56° C | 80% | 1006.4 hPa | 0 mm | 3.58 m/s, 196° | - | - |
| 1777844406 | 10.56° C | 82% | 1006.4 hPa | 0 mm | 4.02 m/s, 172° | - | - |
| 1777844106 | 10.56° C | 83% | 1006.4 hPa | 0 mm | 5.81 m/s, 324° | - | - |
| 1777843806 | 10.56° C | 83% | 1006.4 hPa | 0 mm | 8.05 m/s, 314° | - | - |
| 1777843506 | 10.56° C | 82% | 1006.4 hPa | 0 mm | 3.58 m/s, 270° | - | - |
| 1777843206 | 10.56° C | 81% | 1006.8 hPa | 0 mm | 5.36 m/s, 196° | - | - |
| 1777842905 | 10.56° C | 81% | 1006.8 hPa | 0 mm | 3.13 m/s, 187° | - | - |
| 1777842606 | 10.56° C | 80% | 1006.8 hPa | 0 mm | 2.68 m/s, 251° | - | - |
| 1777842306 | 10.56° C | 82% | 1006.8 hPa | 0 mm | 3.58 m/s, 262° | - | - |
| 1777842010 | 10.56° C | 81% | 1006.4 hPa | 0 mm | 6.71 m/s, 329° | - | - |
| 1777841705 | 10.56° C | 81% | 1006.4 hPa | 0 mm | 0.89 m/s, 3° | - | - |
| 1777841405 | 10.56° C | 82% | 1006.4 hPa | 0 mm | 5.81 m/s, 255° | - | - |
| 1777841105 | 10.56° C | 82% | 1006.4 hPa | 0 mm | 10.73 m/s, 335° | - | - |
| 1777840805 | 10.56° C | 81% | 1006.4 hPa | 0 mm | 2.68 m/s, 301° | - | - |
| 1777840505 | 10.56° C | 80% | 1006.1 hPa | 0 mm | 4.92 m/s, 312° | - | - |
| 1777839904 | 10.56° C | 83% | 1006.1 hPa | 0 mm | 2.68 m/s, 303° | - | - |
| 1777839604 | 10.56° C | 82% | 1006.4 hPa | 0 mm | 4.47 m/s, 176° | - | - |
| 1777839304 | 10.56° C | 81% | 1006.4 hPa | 0 mm | 4.92 m/s, 180° | - | - |
| 1777839004 | 10° C | 83% | 1006.4 hPa | 0 mm | 2.68 m/s, 167° | - | - |
| 1777838704 | 10° C | 82% | 1006.4 hPa | 0 mm | 4.47 m/s, 289° | - | - |
* Rain latest hour (hover to see other rain measurements)
** Current wind speed in m/s (hover to see current wind gust speed)